Weather History for CYXU - October, 2011

Change the Weather History Date:

Friday, October 28, 2011

  Actual Average Record
Temperature  
Mean Temperature 38 °F -  
Max Temperature 48 °F 50 °F 66 °F (2014)
Min Temperature 28 °F 35 °F 28 °F (2011)
Degree Days  
Heating Degree Days 27    
Moisture  
Dew Point 31 °F    
Average Humidity 80    
Maximum Humidity 100    
Minimum Humidity 46    
Precipitation  
Precipitation 0.00 in - - ()
Sea Level Pressure  
Sea Level Pressure 30.19 in    
Wind  
Wind Speed 3 mph ()    
Max Wind Speed 9 mph    
Max Gust Speed -    
Visibility 15.0 miles    
Events      
Averages and records for this station are not official NWS values.
T = Trace of Precipitation, MM = Missing Value Source: Averaged Metar Reports

Daily Weather History Graph

Daily Weather History Graph

Search for Another Location

Airport or City:

Trip Planner

Search our weather history database for the weather conditions in past years. The results will help you decide how hot, cold, wet, or windy it might be!

Date:

Astronomy

Oct. 28, 2011 Rise Set
Actual Time 7:53 AM EDT 6:22 PM EDT
Civil Twilight 7:24 AM EDT 6:51 PM EDT
Nautical Twilight 6:51 AM EDT 7:24 PM EDT
Astronomical Twilight 6:18 AM EDT 7:57 PM EDT
Moon 10:12 AM EDT (10/28) 7:39 PM EDT (10/28)
Length of Visible Light 11h 27m
Length of Day
10h 28m
Waxing Crescent, 5% of the Moon is Illuminated
Oct 28
Waxing Crescent
Nov 2
First Quarter
Nov 10
Full
Nov 18
Last Quarter
Nov 25
New

Hourly Weather History & Observations

Time (EDT) Temp. Windchill Dew Point Humidity Pressure Visibility Wind Dir Wind Speed Gust Speed Precip Events Conditions
12:00 AM 28.4 °F - 28.4 °F 100% 30.14 in 15.0 mi Calm Calm - N/A   Partly Cloudy
1:00 AM 30.2 °F - 28.4 °F 93% 30.15 in 15.0 mi Calm Calm - N/A   Clear
2:00 AM 28.4 °F - 26.6 °F 93% 30.16 in 15.0 mi Calm Calm - N/A   Clear
3:00 AM 28.4 °F - 26.6 °F 93% 30.17 in 15.0 mi East 2.3 mph - N/A   Clear
4:00 AM 28.4 °F - 26.6 °F 93% 30.17 in 15.0 mi Calm Calm - N/A   Scattered Clouds
5:00 AM 28.4 °F 24.6 °F 26.6 °F 93% 30.18 in 15.0 mi ESE 3.5 mph - N/A   Scattered Clouds
6:00 AM 28.4 °F - 28.4 °F 100% 30.19 in 15.0 mi ENE 2.3 mph - N/A   Mostly Cloudy
7:00 AM 30.2 °F - 28.4 °F 93% 30.20 in 15.0 mi ESE 2.3 mph - N/A   Partly Cloudy
8:00 AM 28.4 °F 23.3 °F 28.4 °F 100% 30.22 in 15.0 mi East 4.6 mph - N/A   Mostly Cloudy
9:00 AM 32.0 °F 28.7 °F 30.2 °F 93% 30.24 in 15.0 mi South 3.5 mph - N/A   Mostly Cloudy
10:00 AM 37.4 °F - 30.2 °F 75% 30.25 in 15.0 mi SSE 2.3 mph - N/A   Scattered Clouds
11:00 AM 42.8 °F 38.0 °F 35.6 °F 76% 30.24 in 15.0 mi SW 8.1 mph - N/A   Scattered Clouds
12:00 PM 46.4 °F 42.4 °F 35.6 °F 66% 30.24 in 15.0 mi SW 8.1 mph - N/A   Scattered Clouds
1:00 PM 46.4 °F 41.9 °F 33.8 °F 62% 30.23 in 15.0 mi South 9.2 mph - N/A   Mostly Cloudy
2:00 PM 46.4 °F 42.4 °F 33.8 °F 62% 30.20 in 15.0 mi SSW 8.1 mph - N/A   Mostly Cloudy
3:00 PM 48.2 °F - 32.0 °F 54% 30.18 in 15.0 mi WSW 6.9 mph - N/A   Mostly Cloudy
4:00 PM 48.2 °F - 28.4 °F 46% 30.16 in 15.0 mi WNW 4.6 mph - N/A   Mostly Cloudy
5:00 PM 46.4 °F 42.4 °F 32.0 °F 57% 30.16 in 15.0 mi SSW 8.1 mph - N/A   Mostly Cloudy
6:00 PM 42.8 °F 38.0 °F 23.0 °F 46% 30.16 in 15.0 mi South 8.1 mph - N/A   Mostly Cloudy
7:00 PM 39.2 °F 34.2 °F 35.6 °F 87% 30.18 in 15.0 mi SSE 6.9 mph - N/A   Mostly Cloudy
8:00 PM 41.0 °F 35.8 °F 35.6 °F 81% 30.19 in 15.0 mi SE 8.1 mph - N/A   Overcast
9:00 PM 39.2 °F 34.2 °F 35.6 °F 87% 30.18 in 15.0 mi SE 6.9 mph - N/A   Mostly Cloudy
10:00 PM 39.2 °F 35.9 °F 33.8 °F 81% 30.18 in 15.0 mi East 4.6 mph - N/A   Mostly Cloudy
11:00 PM 39.2 °F 35.9 °F 35.6 °F 87% 30.17 in 15.0 mi ESE 4.6 mph - N/A   Overcast